This is the latest recevied weather packets stored in our database for station/object SV5DDT-12. If no packets are shown the sender has not sent any weather packets the latest 10 day(s).
| Time | Temp. | Humidity | Pressure | Rain* | Wind** | Luminosity | Snow |
|---|---|---|---|---|---|---|---|
| 1777709684 | 21.11° C | 52% | 1011.9 hPa | - | - | - | - |
| 1777708784 | 21.67° C | 52% | 1011.8 hPa | - | - | - | - |
| 1777707884 | 21.67° C | 52% | 1011.7 hPa | - | - | - | - |
| 1777706983 | 21.67° C | 52% | 1011.5 hPa | - | - | - | - |
| 1777706083 | 21.67° C | 51% | 1011.4 hPa | - | - | - | - |
| 1777705183 | 21.67° C | 51% | 1011.5 hPa | - | - | - | - |
| 1777704283 | 21.67° C | 51% | 1011.4 hPa | - | - | - | - |
| 1777703383 | 21.67° C | 53% | 1011.4 hPa | - | - | - | - |
| 1777702483 | 22.22° C | 56% | 1011.7 hPa | - | - | - | - |
| 1777701583 | 22.22° C | 51% | 1011.6 hPa | - | - | - | - |
| 1777700683 | 22.22° C | 53% | 1011.7 hPa | - | - | - | - |
| 1777699783 | 22.22° C | 51% | 1011.9 hPa | - | - | - | - |
| 1777698882 | 22.22° C | 51% | 1012.1 hPa | - | - | - | - |
| 1777697982 | 22.22° C | 51% | 1012.1 hPa | - | - | - | - |
| 1777697082 | 22.78° C | 52% | 1012.2 hPa | - | - | - | - |
| 1777696182 | 22.78° C | 52% | 1012.1 hPa | - | - | - | - |
| 1777695282 | 22.78° C | 52% | 1012.1 hPa | - | - | - | - |
| 1777694382 | 22.78° C | 53% | 1012 hPa | - | - | - | - |
| 1777693482 | 22.78° C | 53% | 1011.9 hPa | - | - | - | - |
| 1777692582 | 22.78° C | 53% | 1011.8 hPa | - | - | - | - |
| 1777691681 | 22.78° C | 52% | 1011.6 hPa | - | - | - | - |
| 1777690781 | 22.78° C | 52% | 1011.4 hPa | - | - | - | - |
| 1777689881 | 22.78° C | 52% | 1011.6 hPa | - | - | - | - |
| 1777688981 | 22.78° C | 52% | 1011.5 hPa | - | - | - | - |
| 1777688081 | 22.78° C | 52% | 1011.8 hPa | - | - | - | - |
* Rain since midnight (hover to see other rain measurements)
** Current wind speed in m/s (hover to see current wind gust speed)